Content
SEND FEEDBACK

Daily
Averages
Monthly
Summary
United States of America

ST. LOUIS, MISSOURI


Home > North America > United States > Missouri
Elevation: 535 feet     Latitude: 38 45N     Longitude: 090 22W

WEATHER
 
SELECT A DAY
Number of Records: 199,638;   Date Range: 1/1/95 - 10/20/14
 
SHARE

PRINT THIS DATA

[ ← Previous Day ]
WEATHER ALMANAC - SEPTEMBER 21, 2013
[ Next Day → ]
[ °C ]   °F
Weather ElementAverageHighLow
Temperature60 °F73 °F (3:54 pm)50 °F (6:54 am)
Dewpoint48.8 °F52 °F (1:54 am)46 °F (1:54 pm)
Humidity70.9 %97 % (9:54 pm)38 % (3:54 pm)
Barometer29.93 in29.98 in (10:54 am)29.90 in (4:54 pm)
Wind Speed5.2 mph12.7 mph (10:54 am)
Weather ElementAverage
Visibility9.9 mi
Wind DirectionSSE (170 °)

Weather ElementTotal
Precipitation---
Heating Degree Days3.5 (Base 65)
Growing Degree Days11.5 (Base 50)
Averaged from 23 records on September 21, 2013
WEATHER CONDITIONS BREAKOUT
WIND DIRECTION BREAKOUT
WEATHER BY HOUR - SEPTEMBER 21, 2013
[ °C ]   °F
Local TimeTemperatureDewpointHumidityBarometerVisibilityWind DirectionWind SpeedGust SpeedPrecipitationEventsConditions
1:54 AM54.0 °F52.0 °F93 %29.91 in10.0 miWSW (240°)4.6 mphClear
2:54 AM52.0 °F50.0 °F93 %29.91 in10.0 miWSW (240°)3.5 mphClear
3:54 AM52.0 °F50.0 °F93 %29.91 in10.0 miWSW (250°)3.5 mphClear
4:54 AM52.0 °F50.0 °F93 %29.92 in10.0 miWSW (250°)3.5 mphClear
5:54 AM52.0 °F50.0 °F93 %29.93 in10.0 miWSW (240°)3.5 mphClear
6:54 AM50.0 °F48.9 °F96 %29.94 in10.0 miWest (270°)3.5 mphPartly Cloudy
7:54 AM55.0 °F51.1 °F86 %29.96 in10.0 miWNW (300°)4.6 mphClear
8:54 AM59.0 °F50.0 °F72 %29.96 in10.0 miNNW (330°)6.9 mphClear
9:54 AM62.1 °F48.9 °F62 %29.97 in10.0 miCalmClear
10:54 AM64.9 °F46.9 °F52 %29.98 in10.0 miNNE (20°)12.7 mphClear
11:54 AM66.9 °F46.9 °F49 %29.97 in10.0 miNNW (340°)8.1 mphScattered Clouds
12:54 PM69.1 °F48.0 °F47 %29.96 in10.0 miNNW (340°)9.2 mphPartly Cloudy
1:54 PM70.0 °F46.0 °F42 %29.94 in10.0 miNorth (10°)11.5 mphClear
2:54 PM72.0 °F46.0 °F40 %29.92 in10.0 miNorth (350°)12.7 mphClear
3:54 PM73.0 °F46.0 °F38 %29.91 in10.0 miNNW (330°)10.4 mphPartly Cloudy
4:54 PM73.0 °F46.0 °F38 %29.90 in10.0 miNNW (340°)10.4 mphClear
5:54 PM71.1 °F46.9 °F42 %29.91 in10.0 miNNE (30°)6.9 mphClear
6:54 PM66.9 °F48.0 °F51 %29.91 in10.0 miNNE (30°)3.5 mphClear
7:54 PM55.9 °F51.1 °F84 %29.92 in10.0 miCalmClear
8:54 PM55.0 °F51.1 °F86 %29.93 in10.0 miCalmClear
9:54 PM52.0 °F51.1 °F97 %29.94 in10.0 miCalmClear
10:54 PM51.1 °F48.9 °F92 %29.95 in10.0 miCalmClear
11:54 PM51.1 °F48.9 °F92 %29.95 in8.0 miCalmClear
Hourly data recorded from KSUS, located miles away from St. Louis, Missouri







STORIES FROM OUR PARTNERS